METAR LSZS 051520Z 30010KT 280V010 9999 FEW065 23/10 Q1022 RMK
Diese Daten sind ohne Gewähr und dürfen nicht für die Flugvorbereitung verwendet werden.
Information contained in this website shall not be used for flight operation purposes.